sat.trackr.live / text

‹ back to catalog

ONEWEB-0228

NORAD 48780 · 2021-045P

PAYLOAD ACTIVE UNKNOWN

§ Identity

Operator
Country
UK
Launch date
2021-05-28
Launch site
VOSTO
Launch vehicle
Mass (kg)
RCS (m²)

Purposes: comms

External: N2YO · Heavens-Above · Gunter

§ Orbital elements

Epoch: 2026-05-24T19:43:07.890240Z

Period
109.46 min
Inclination
87.9007°
Eccentricity
0.0001792
Mean motion
13.15549811 rev/d
Perigee alt
1,200.4 km
Apogee alt
1,203.1 km
Semi-major
7,579.9 km
B*
-3.1520e-4
RAAN
263.8357°
Arg perigee
98.5465°
Mean anomaly
261.5869°
Rev number
24,125

§ Raw data

ONEWEB-02281 48780U 21045P   26144.82161910 -.00000106  00000+0 -31520-3 0  99962 48780  87.9007 263.8357 0001792  98.5465 261.5869 13.15549811241259

JSON: /api/v1/satellites/48780 · /tle

For live sub-satellite position, see the globe view (requires WebGL).

§ Visibility from observer

Set your observer location to see the next 7 days of passes ≥ 10°. The values pass through the URL so the page stays shareable.

No JS? Fill the form by hand. The geolocation button needs JavaScript.